sat.trackr.live / text

‹ back to catalog

STARLINK-33731

NORAD 63475 · 2025-070R

PAYLOAD ACTIVE UNKNOWN

§ Identity

Operator
Country
US
Launch date
2025-04-06
Launch site
AFETR
Launch vehicle
Mass (kg)
RCS (m²)

Purposes: comms

External: N2YO · Heavens-Above · Gunter

§ Orbital elements

Epoch: 2026-09-20T08:34:11.072640Z

Period
94.27 min
Inclination
42.9985°
Eccentricity
0.0001228
Mean motion
15.27587540 rev/d
Perigee alt
482.2 km
Apogee alt
483.9 km
Semi-major
6,861.2 km
B*
3.8428e-4
RAAN
240.8233°
Arg perigee
271.5216°
Mean anomaly
88.5495°
Rev number
8,274

§ Raw data

STARLINK-337311 63475U 25070R   26263.35707260  .00010330  00000+0  38428-3 0  99922 63475  42.9985 240.8233 0001228 271.5216  88.5495 15.27587540 82747

JSON: /api/v1/satellites/63475 · /tle

For live sub-satellite position, see the globe view (requires WebGL).

§ Visibility from observer

Set your observer location to see the next 7 days of passes ≥ 10°. The values pass through the URL so the page stays shareable.

No JS? Fill the form by hand. The geolocation button needs JavaScript.